Погода в Гарачине

Панама     8˚03′57″N   78˚22′00″W
темп.,
°C
ветер,
м/с
пор.,
м/с
влажн.,
%
обл.,
%
осадки,
мм/ч
давл.,
гПа
погр.,
м
17 января, вс
вс1701:00+22˚всв129447 0.1 1012137
04:00+21˚в129599 0.0 1010118
07:00+21˚вюв129684 0.0 101184
10:00+27˚св236956 0.0 1012757
13:00+29˚с236351 0.0 1010998
16:00+27˚сз337328 0.1 1007534
19:00+23˚з119415 0.5 100952
22:00+23˚всв239413 0.2 1011104
18 января, пн
пн1801:00+22˚всв129333 0.3 1011128
04:00+22˚в129712 0.1 1010100
07:00+22˚в129735 0.2 1012111
10:00+26˚св247865 0.1 1013677
13:00+29˚ссв346449 0.3 10101003
16:00+28˚ссв24722 0.4 1008963
19:00+24˚ссв25921 0.8 1009192
22:00+23˚св139520 0.1 1011177
19 января, вт
вт1901:00+23˚св139554 0.2 1011193
04:00+22˚св129596 0.2 1009138
07:00+22˚в119768 0.4 101195
10:00+27˚св147942 0.2 1012671
13:00+30˚с236271 0.3 10101068
16:00+27˚ссз237843 0.6 1007394
19:00+24˚ссв249328 1.2 1009166
22:00+23˚всв139521 0.1 1010191
20 января, ср
ср2001:00+23˚св139357 0.2 1010186
04:00+22˚всв129652 0.1 1008123
07:00+22˚в129675 0.1 1010117
10:00+27˚всв1477100 0.1 1011588
13:00+30˚ссз225975 0.1 10091114
16:00+28˚з128141 1.8 1007430
19:00+24˚ююз119471 2.8 100927
22:00+23˚св1395100 0.1 1011154
21 января, чт
чт2101:00+23˚св1395100 0.2 1010166
04:00+22˚в1196100 0.1 1009114
07:00+22˚в119796 0.1 101095
10:00+27˚св137774 0.2 1012600
13:00+27˚сз118177 1.9 1009674
16:00+26˚юз1287100 2.4 1007413
19:00+23˚ююз119362 3.5 100936
22:00+23˚ссв259575 1.1 1011295